Location: Pitton
(51.0667°N, 1.7000°W)
Time: 08:00:10
(UTC+00:00)

NOSS 3-4 (A) - Pass Details

Date: 17 September 2019
Orbit: 910 x 1303 km, 63.4° (Epoch: 21 September)

Event Time Altitude Azimuth Distance (km) Brightness Sun altitude
Rises 18:41:18 0° 313° (NW) 3,760 7.6 -4.6°
Reaches altitude 10° 18:43:50 10° 317° (NW) 2,858 6.9 -5.0°
Maximum altitude 18:50:36 64° 39° (NE) 1,231 4.0 -6.0°
Drops below altitude 10° 18:58:02 10° 121° (ESE) 3,134 5.5 -7.2°
Enters shadow 18:59:03 - 122° (ESE) 3,483 5.8 -7.3°
